Miscellaneous Local Product
Issued by NWS Hastings, NE

Home | Current Version | Previous Version | Graphics & Text | Print | Product List | Glossary On
Versions: 1 2 3 4 5 6 7 8 9 10 11 12 13 14 15 16 17 18 19 20 21 22 23 24 25 26 27 28 29 30 31 32 33 34 35 36 37 38 39 40 41 42 43 44 45 46 47 48 49 50
582
AXUS43 KGID 280702
MISGRI

GID CWA HOURLY WEATHER ROUNDUP
NATIONAL WEATHER SERVICE HASTINGS NE
200 AM CDT THU APR 28 2016

NOTE: "FAIR" INDICATES FEW OR NO CLOUDS BELOW 12,000 FEET WITH NO
SIGNIFICANT WEATHER AND/OR OBSTRUCTIONS TO VISIBILITY.

...SOUTH CENTRAL NEBRASKA...

CITY           SKY/WX    TMP DP  RH WIND       PRES   REMARKS
GRAND ISLAND   CLOUDY    40  39  97 NW20      29.76R WCI  30
HASTINGS       CLOUDY    39  36  89 NW20      29.76R WCI  29
KEARNEY        CLOUDY    37  34  87 NW21      29.79S WCI  27
ORD            CLOUDY    39  38  96 NW17      29.77R WCI  30
YORK           CLOUDY    45  43  93 NW21      29.71R FOG
AURORA         CLOUDY    42  41  96 NW16G24   29.74R
LEXINGTON      PTCLDY    35  32  87 NW21      29.83S WCI  24
HOLDREGE       CLEAR     36  32  86 W16G22    29.81S WCI  26
HEBRON         CLOUDY    44  39  83 NW14G26   29.75R

...NEBRASKA PANHANDLE...

CITY           SKY/WX    TMP DP  RH WIND       PRES   REMARKS
CHADRON        CLOUDY    32  30  92 N9        29.95R WCI  24
ALLIANCE       CLOUDY    31  29  92 NW12      29.91S WCI  22
SCOTTSBLUFF    CLOUDY    34  28  79 N7        29.94R WCI  28
SIDNEY         CLEAR     31  27  85 N13       29.90S WCI  21

...WESTERN AND NORTH CENTRAL NEBRASKA...

CITY           SKY/WX    TMP DP  RH WIND       PRES   REMARKS
VALENTINE      CLOUDY    34  32  92 NW13      29.87R FOG     WCI  25
AINSWORTH      LGT SNOW  37  36  99 NW14      29.83R WCI  28
ONEILL         CLOUDY    42  40  95 N16       29.78R
BROKEN BOW     FLURRIES  35  33  92 NW17      29.81R WCI  25
IMPERIAL       CLEAR     34  30  85 NW10      29.90S WCI  26
NORTH PLATTE   CLOUDY    33  30  88 W13       29.87R WCI  24
MCCOOK         CLEAR     35  30  82 W10       29.88S WCI  27

...EASTERN NEBRASKA...

CITY           SKY/WX    TMP DP  RH WIND       PRES   REMARKS
NORFOLK        CLOUDY    43  41  93 N12       29.70R
SO SIOUX CITY  LGT RAIN  45  41  86 NE17G23   29.67R
TEKAMAH        CLOUDY    47  47 100 E5        29.63R
COLUMBUS       CLOUDY    46  37  71 NW13      29.71R
ALBION         CLOUDY    44  42  94 N15       29.72R FOG
OMAHA EPPLEY   CLOUDY    47  44  90 S3        29.64R
OFFUTT AFB     CLOUDY    46  45  95 SW5       29.64R
MILLARD        CLOUDY    47  44  87 CALM      29.64R
LINCOLN        CLOUDY    50  45  83 N14       29.67R
NEBRASKA CITY  MOCLDY    45  45 100 W9        29.64R
BEATRICE       CLOUDY    45  43  92 W15       29.69R
FALLS CITY     CLOUDY    48  42  80 W17G24    29.67R

...NORTHERN KANSAS...

CITY           SKY/WX    TMP DP  RH WIND       PRES   REMARKS
GOODLAND       MOCLDY    35  31  85 NW6       29.91R WCI  30
HILL CITY      CLEAR     41  34  76 NW13      29.88R
NORTON         SUNNY     37  30  75 W10       29.87  WCI  30
PHILLIPSBURG   CLEAR     39  34  81 W14       29.86R WCI  31
SMITH CENTER   CLEAR     36  34  93 W14       29.83R WCI  27
BELOIT         CLEAR     39  34  81 W12       29.80F WCI  32
HAYS           CLEAR     45  30  57 NW15      29.85S
RUSSELL        CLEAR     43  36  76 NW16      29.82F
CONCORDIA      CLEAR     40  34  79 W14       29.79R WCI  32
SALINA         CLEAR     47  37  68 W17       29.81S
TOPEKA         MOCLDY    48  37  65 W16G24    29.75R



USA.gov is the U.S. government's official web portal to all federal, state and local government web resources and services.